Total_Precipitation_Accumulation
1.10 1.10 1.01 0.96 0.90 0.84 0.77 0.75 0.65 0.56 0.52 0.49 0.44 0.41 0.40 0.37 0.36 0.34 0.34 0.31 0.33 0.39 0.44 0.47 0.51 0.51 0.50 0.48 0.46 0.44 0.43 0.42 0.43 0.40 0.34 0.29 0.27 0.25 0.23 0.21 0.20 0.20 0.19
0.68 0.64 0.62 0.59 0.57 0.56 0.54 0.52 0.52 0.48 0.44 0.42 0.39 0.37 0.36 0.37 0.36 0.34 0.32 0.32 0.31 0.33 0.35 0.37 0.39 0.39 0.40 0.39 0.37 0.36 0.36 0.36 0.35 0.34 0.29 0.23 0.20 0.18 0.19 0.20 0.16 0.14 0.16
0.48 0.47 0.44 0.45 0.47 0.48 0.49 0.48 0.47 0.45 0.42 0.40 0.37 0.37 0.37 0.36 0.35 0.33 0.32 0.30 0.28 0.27 0.26 0.25 0.25 0.24 0.24 0.23 0.21 0.19 0.19 0.18 0.20 0.22 0.21 0.17 0.15 0.15 0.19 0.19 0.18 0.22 0.15
0.44 0.42 0.38 0.36 0.37 0.39 0.40 0.40 0.39 0.39 0.42 0.43 0.41 0.40 0.36 0.32 0.28 0.25 0.23 0.22 0.20 0.19 0.16 0.14 0.13 0.13 0.14 0.15 0.14 0.13 0.13 0.14 0.16 0.20 0.20 0.17 0.16 0.15 0.24 0.26 0.22 0.22 0.18
0.47 0.48 0.45 0.40 0.37 0.38 0.39 0.43 0.42 0.37 0.34 0.32 0.29 0.27 0.23 0.18 0.15 0.13 0.12 0.12 0.11 0.10 0.08 0.07 0.07 0.08 0.09 0.09 0.09 0.11 0.15 0.19 0.20 0.22 0.21 0.18 0.17 0.22 0.26 0.26 0.23 0.20 0.16
0.56 0.57 0.57 0.55 0.52 0.48 0.43 0.39 0.34 0.30 0.24 0.19 0.14 0.14 0.13 0.11 0.11 0.10 0.09 0.08 0.07 0.07 0.06 0.05 0.05 0.05 0.04 0.04 0.06 0.11 0.17 0.20 0.21 0.23 0.23 0.25 0.25 0.28 0.30 0.28 0.28 0.29 0.29
0.66 0.64 0.63 0.58 0.52 0.44 0.33 0.27 0.22 0.19 0.18 0.15 0.11 0.08 0.08 0.08 0.08 0.07 0.06 0.06 0.06 0.06 0.06 0.06 0.04 0.02 0.04 0.06 0.06 0.08 0.09 0.10 0.15 0.24 0.30 0.31 0.33 0.36 0.38 0.36 0.37 0.40 0.38
0.67 0.63 0.56 0.46 0.38 0.29 0.24 0.21 0.18 0.16 0.17 0.16 0.13 0.11 0.09 0.06 0.04 0.04 0.03 0.03 0.05 0.05 0.05 0.05 0.06 0.06 0.06 0.06 0.05 0.06 0.11 0.14 0.14 0.16 0.26 0.29 0.28 0.29 0.34 0.37 0.41 0.43 0.44
0.59 0.49 0.39 0.31 0.24 0.19 0.17 0.17 0.16 0.14 0.13 0.12 0.12 0.12 0.13 0.10 0.04 0.03 0.02 0.03 0.05 0.04 0.04 0.04 0.04 0.07 0.07 0.07 0.07 0.12 0.18 0.22 0.12 0.10 0.16 0.22 0.25 0.28 0.29 0.34 0.49 0.62 0.57
0.36 0.29 0.25 0.23 0.20 0.18 0.16 0.15 0.14 0.13 0.12 0.09 0.08 0.10 0.11 0.10 0.03 0.02 0.02 0.03 0.04 0.04 0.06 0.08 0.06 0.06 0.05 0.05 0.07 0.15 0.23 0.25 0.23 0.28 0.36 0.39 0.41 0.49 0.45 0.46 0.59 0.66 0.64
0.24 0.21 0.19 0.17 0.14 0.15 0.16 0.14 0.14 0.13 0.14 0.13 0.11 0.10 0.10 0.06 0.03 0.01 0.01 0.02 0.03 0.04 0.09 0.16 0.16 0.08 0.05 0.05 0.07 0.13 0.19 0.17 0.25 0.40 0.48 0.49 0.50 0.56 0.54 0.49 0.55 0.63 0.69
0.20 0.20 0.19 0.16 0.12 0.13 0.17 0.16 0.14 0.15 0.18 0.17 0.17 0.15 0.12 0.08 0.03 0.01 0.00 0.00 0.01 0.05 0.14 0.18 0.17 0.09 0.07 0.10 0.11 0.15 0.17 0.24 0.38 0.50 0.53 0.52 0.49 0.50 0.49 0.46 0.49 0.54 0.62
0.22 0.23 0.20 0.16 0.15 0.16 0.17 0.17 0.16 0.17 0.15 0.13 0.14 0.15 0.13 0.12 0.07 0.01 0.00 0.00 0.01 0.05 0.12 0.11 0.12 0.13 0.15 0.26 0.24 0.21 0.28 0.42 0.51 0.55 0.56 0.54 0.46 0.41 0.38 0.37 0.40 0.49 0.56
0.29 0.25 0.19 0.18 0.17 0.17 0.16 0.13 0.13 0.14 0.11 0.11 0.13 0.13 0.13 0.13 0.07 0.03 0.02 0.04 0.05 0.08 0.10 0.14 0.22 0.28 0.32 0.39 0.43 0.48 0.50 0.50 0.46 0.52 0.53 0.45 0.35 0.31 0.33 0.34 0.39 0.45 0.53
0.32 0.25 0.18 0.16 0.16 0.16 0.15 0.10 0.07 0.07 0.04 0.06 0.09 0.08 0.08 0.08 0.04 0.02 0.02 0.02 0.04 0.05 0.08 0.19 0.35 0.41 0.47 0.51 0.54 0.57 0.59 0.52 0.46 0.46 0.46 0.42 0.36 0.33 0.31 0.28 0.33 0.38 0.45
0.30 0.21 0.14 0.11 0.11 0.10 0.12 0.12 0.05 0.02 0.01 0.01 0.02 0.02 0.03 0.03 0.03 0.02 0.02 0.03 0.04 0.07 0.13 0.28 0.35 0.39 0.43 0.44 0.44 0.48 0.52 0.51 0.44 0.40 0.40 0.37 0.34 0.33 0.33 0.31 0.31 0.36 0.43
0.20 0.14 0.09 0.09 0.10 0.09 0.10 0.16 0.18 0.08 0.02 0.01 0.01 0.02 0.03 0.03 0.02 0.03 0.03 0.05 0.09 0.15 0.25 0.34 0.35 0.38 0.41 0.38 0.37 0.42 0.46 0.42 0.36 0.33 0.32 0.30 0.28 0.27 0.28 0.29 0.29 0.29 0.30
0.09 0.05 0.04 0.06 0.06 0.07 0.07 0.09 0.13 0.17 0.17 0.11 0.05 0.02 0.03 0.04 0.04 0.06 0.08 0.13 0.22 0.26 0.32 0.32 0.32 0.34 0.38 0.37 0.33 0.32 0.32 0.28 0.24 0.24 0.25 0.22 0.21 0.23 0.24 0.26 0.23 0.20 0.22
0.05 0.05 0.05 0.04 0.03 0.03 0.04 0.04 0.04 0.08 0.14 0.18 0.14 0.07 0.05 0.09 0.11 0.13 0.16 0.21 0.27 0.28 0.26 0.27 0.28 0.28 0.30 0.32 0.28 0.24 0.21 0.18 0.17 0.17 0.17 0.18 0.18 0.18 0.19 0.18 0.15 0.10 0.14
0.04 0.03 0.03 0.03 0.02 0.02 0.02 0.02 0.02 0.04 0.08 0.12 0.12 0.07 0.07 0.16 0.24 0.24 0.21 0.21 0.20 0.21 0.22 0.24 0.22 0.19 0.22 0.21 0.17 0.16 0.16 0.14 0.12 0.12 0.12 0.12 0.12 0.13 0.13 0.11 0.10 0.10 0.11
0.02 0.01 0.00 0.01 0.01 0.01 0.01 0.01 0.02 0.02 0.05 0.08 0.06 0.04 0.09 0.17 0.25 0.25 0.23 0.19 0.17 0.19 0.21 0.20 0.18 0.16 0.15 0.14 0.12 0.10 0.09 0.09 0.09 0.11 0.10 0.08 0.07 0.07 0.06 0.04 0.04 0.04 0.04
0.01 0.01 0.00 0.00 0.00 0.00 0.01 0.01 0.01 0.02 0.03 0.04 0.05 0.05 0.10 0.16 0.22 0.25 0.26 0.21 0.17 0.16 0.17 0.16 0.14 0.13 0.11 0.11 0.10 0.08 0.06 0.06 0.07 0.11 0.10 0.07 0.05 0.04 0.03 0.02 0.02 0.02 0.02
0.00 0.00 0.00 0.00 0.00 0.00 0.00 0.00 0.00 0.01 0.02 0.03 0.04 0.05 0.08 0.15 0.21 0.24 0.22 0.17 0.12 0.11 0.12 0.12 0.11 0.09 0.07 0.06 0.05 0.04 0.03 0.03 0.05 0.08 0.09 0.05 0.03 0.03 0.02 0.02 0.02 0.02 0.01
0.00 0.00 0.00 0.00 0.00 0.00 0.00 0.00 0.00 0.00 0.01 0.02 0.03 0.04 0.05 0.11 0.15 0.17 0.17 0.14 0.10 0.09 0.08 0.07 0.07 0.05 0.04 0.03 0.02 0.01 0.01 0.01 0.02 0.03 0.05 0.04 0.03 0.02 0.02 0.02 0.02 0.02 0.02
0.00 0.00 0.00 0.00 0.00 0.00 0.00 0.00 0.00 0.00 0.01 0.01 0.02 0.03 0.03 0.04 0.06 0.07 0.09 0.10 0.10 0.08 0.06 0.04 0.03 0.02 0.01 0.01 0.01 0.00 0.00 0.01 0.00 0.01 0.02 0.02 0.01 0.01 0.01 0.01 0.01 0.02 0.03
0.00 0.00 0.00 0.00 0.00 0.00 0.00 0.00 0.01 0.01 0.01 0.01 0.02 0.03 0.02 0.02 0.02 0.03 0.04 0.06 0.07 0.06 0.06 0.04 0.02 0.01 0.00 0.00 0.00 0.01 0.01 0.01 0.01 0.01 0.01 0.02 0.01 0.01 0.01 0.01 0.01 0.02 0.02